Regional Weather Roundup
Issued by NWS

Home | Current Version | Previous Version | Text Only | Print | Product List | Glossary Off
Versions: 1 2 3 4 5 6 7 8 9 10 11 12 13 14 15 16 17 18 19 20 21 22 23 24 25 26 27 28 29 30 31 32 33 34 35 36 37 38 39 40 41 42 43 44 45 46 47 48 49 50

000
ASUS43 KMKX 240311
RWRWI

WISCONSIN REGIONAL WEATHER ROUNDUP
NATIONAL WEATHER SERVICE MILWAUKEE/SULLIVAN WI
900 PM CST THU NOV 23 2017

NOTE: "FAIR" INDICATES FEW OR NO CLOUDS BELOW 12,000 FEET WITH NO
SIGNIFICANT WEATHER AND/OR OBSTRUCTIONS TO VISIBILITY.

WIZ001-002-006>008-014>016-023>028-240400-
NORTHWEST WISCONSIN

CITY           SKY/WX    TMP DP  RH WIND       PRES   REMARKS
SUPERIOR ARPT  CLOUDY    36  26  66 SW5       29.59F WCI  32
ASHLAND        CLOUDY    37  25  61 SW8       29.62F WCI  31
HAYWARD        CLOUDY    37  23  56 S10       29.65F WCI  30
SIREN          CLEAR     40  27  59 S12G18    29.62F WCI  33
CUMBERLAND     CLEAR     32  23  69 S7        29.66F WCI  26
RICE LAKE      CLEAR     34  24  65 SE7       29.68F WCI  28
CHETEK         CLEAR     37  25  60 S9        29.68F WCI  31
LADYSMITH      MOCLDY    37  24  60 S6        29.71F WCI  32
EAU CLAIRE     CLOUDY    37  23  56 S7        29.71F WCI  32
MENOMONIE      PTCLDY    34  24  66 SE6       29.70F WCI  29
NEW RICHMOND   CLEAR     37  26  64 S10       29.66F WCI  30
OSCEOLA        CLEAR     38  28  67 S8        29.67F WCI  32
$$

WIZ003>005-009-010-017-018-240400-
NORTH CENTRAL WISCONSIN

CITY           SKY/WX    TMP DP  RH WIND       PRES   REMARKS
MANITOWISH WTR CLOUDY    33  25  70 S7        29.65F WCI  27
ARBOR VITAE    DRIZZLE   37  25  64 S9        29.67F WCI  30
WOODRUFF       DRIZZLE   37  25  64 S9        29.67F WCI  30
RHINELANDER    CLOUDY    35  23  61 SW13      29.70F WCI  26
EAGLE RIVER    CLOUDY    34  22  60 S5        29.67F WCI  30
LAND O LAKES   CLOUDY    34  23  63 SW6       29.68F WCI  29
PHILLIPS       MOCLDY    34  23  64 S9        29.68F WCI  27
TOMAHAWK       CLOUDY    34  22  61 S3        29.72F
MEDFORD        CLOUDY    34  23  64 S9        29.72F WCI  27
MERRILL        CLOUDY    36  23  59 S6        29.74F WCI  31
$$

WIZ029-030-035-036-043>047-240400-
CENTRAL WISCONSIN

CITY           SKY/WX    TMP DP  RH WIND       PRES   REMARKS
WAUSAU         CLOUDY    35  23  61 SW5       29.74F WCI  31
MOSINEE        MOCLDY    34  23  64 S9        29.77F WCI  26
MARSHFIELD     MOCLDY    37  21  52 S9        29.74F WCI  30
STEVENS POINT  CLOUDY    33  22  64 SW9       29.78F WCI  25
WAUPACA        CLEAR     30  22  72 S5        29.80F WCI  25
WAUTOMA        PTCLDY    25  21  85 S6        29.82F WCI  18
WISC RAPIDS    CLOUDY    33  23  66 S7        29.80F WCI  27
CAMP DOUGLAS   PTCLDY    25  20  82 SE3       29.79F
$$

WIZ011>013-019>022-031-037>040-048>050-240400-
NORTHEAST WISCONSIN

CITY           SKY/WX    TMP DP  RH WIND       PRES   REMARKS
ANTIGO         CLOUDY    33  23  67 S9        29.74F WCI  25
SHAWANO        PTCLDY    35  22  59 CALM      29.78F
OCONTO         CLOUDY    33  22  64 S5        29.79F WCI  28
STURGEON BAY   PTCLDY    33  22  63 S12       29.80F WCI  24
GREEN BAY      PTCLDY    32  26  78 S6        29.81F WCI  26
MANITOWOC      CLOUDY    34  23  64 SW6       29.85F WCI  29
APPLETON       CLEAR     32  19  59 SW7       29.80F WCI  26
CLINTONVILLE   PTCLDY    30  21  69 S3        29.78F
OSHKOSH        CLEAR     31  24  75 S9        29.82F WCI  23
$$

WIZ032>034-041-042-053>061-240400-
SOUTHWEST WISCONSIN

CITY           SKY/WX    TMP DP  RH WIND       PRES   REMARKS
LA CROSSE      MOCLDY    39  26  59 S15       29.78F WCI  31
SPARTA         PTCLDY    27  22  80 CALM      29.79F
VIROQUA        CLEAR     36  27  68 S7        29.80F WCI  31
BOSCOBEL       CLEAR     28  23  81 CALM      29.85F
PRAIRIE DU CHI CLEAR     31  24  72 CALM      29.84F
PLATTEVILLE    CLEAR     36  28  72 S7        29.86F WCI  31
$$

WIZ056-057-062-063-064-067-068-240400-
SOUTH CENTRAL WISCONSIN

CITY           SKY/WX    TMP DP  RH WIND       PRES   REMARKS
REEDSBURG      CLEAR     34  25  69 S7        29.83F WCI  28
BARABOO/DELLS  CLEAR     32  24  70 SW6       29.82F WCI  27
LONE ROCK      NOT AVBL
MINERAL POINT  CLEAR     36  28  75 S7        29.84F WCI  30
MADISON        CLEAR     35  25  66 S6        29.85F WCI  30
MIDDLETON      CLEAR     32  25  74 CALM      29.86F
WATERTOWN      CLEAR     28  24  86 CALM      29.86F
MONROE         CLEAR     34  27  75 S9        29.86F WCI  26
JANESVILLE     CLEAR     32  25  74 S5        29.88F WCI  27
$$

WIZ051-052-058>065-066-070>072-240400-
SOUTHEAST WISCONSIN

CITY           SKY/WX    TMP DP  RH WIND       PRES   REMARKS
MILWAUKEE      CLEAR     37  25  61 SW7       29.90R WCI  32
WAUKESHA       CLEAR     32  21  64 CALM      29.90S
MILWAUKEE/TIMM CLEAR     30  19  64 SW3       29.90R
RACINE         CLEAR     35  25  66 SW7       29.92R WCI  29
BURLINGTON     CLEAR     31  29  92 CALM      29.90S
KENOSHA        CLEAR     35  24  64 SW5       29.90R WCI  31
FOND DU LAC    CLEAR     30  22  72 S5        29.84F WCI  25
SHEBOYGAN      CLEAR     29  23  78 S6        29.86F WCI  23
WEST BEND      CLEAR     30  23  74 CALM      29.87F
JUNEAU         CLEAR     30  24  77 SE3       29.86F
$$

LSZ147-162-240400-
LAKE SUPERIOR

STATION/POSITION TIME  TEMP    WIND        PRES    WAVE
                       AIR SEA DIR/SP/G            HT/PER
                 (UTC) (F)     (DEG/KT/KT) (MB)    (FT/S)
DEVILS ISLAND    0300   39     180/  6/  9 1002.9F
SAXON HARBOR     0240   39     210/  6/  9 1002.7F
$$

LMZ867-665-643>646-240400-
LAKE MICHIGAN

STATION/POSITION TIME  TEMP    WIND        PRES    WAVE
                       AIR SEA DIR/SP/G            HT/PER
                 (UTC) (F)     (DEG/KT/KT) (MB)    (FT/S)
N MID LAKE BUOY  0250   42 47  210/ 17/ 19 1010.3F   3/ 6
NORTHPORT PIER   0300   36     190/  3/ 11 1009.1
KEWAUNEE LAKESHO 0242   36     210/  8/ 11 1010.0F
SHEBOYGAN LAKESH 0300   37     200/  9/  9 1011.7F
PORT WASHINGTON  0230   35     260/  3/  5 1013.2R
MILWAUKEE LAKESH 0250   39     230/  6/  7   N/A
S MID LAKE BUOY  0250   44 47  250/ 10/ 12 1013.2F   1/ 4
KENOSHA   LAKESH 0300   39     240/  7/  9 1012.9
$$

TC  - TEMPERATURE IN CELSIUS
VSB - VISIBILITY IN STATUTE MILES
WCI - WIND CHILL INDEX
HX  - HEAT INDEX





USA.gov is the U.S. government's official web portal to all federal, state and local government web resources and services.